Home > Weather > Preston > Past weeks

Flag for United Kingdom Weather for the Past 2 Weeks in Preston, England, United Kingdom

Now
43 °F

Passing clouds.


Feels Like: 36 °F
Forecast: 39 / 45 °F
Wind: 12 mph from Northwest

Location: Liverpool Airport

Current Time: Feb 10, 2016 at 4:49:55 AM

Latest Report: Feb 10, 2016 at 4:20 AM


Visibility: N/A

Pressure: 29.24 "Hg

Humidity: 87%

Dew point: 39 °F

Location of PrestonLocation

Historic Weather in Preston — Graph

°F

Preston Temperature Yesterday

Maximum temperature yesterday: 45 °F (at 11:20 PM)
Minimum temperature yesterday: 37 °F (at 7:50 AM)
Average temperature yesterday: 41 °F

High & Low Weather Summary for the Past Weeks

 TemperatureHumidityPressure
High57 °F (Jan 27, 9:20 AM)100% (Jan 27, 1:20 AM)30.27 "Hg (Jan 27, 1:20 AM)
Low37 °F (Feb 3, 5:20 AM)57% (Feb 2, 1:50 AM)28.68 "Hg (Feb 8, 7:20 AM)
Average46 °F82%29.61 "Hg
* Reported Jan 26 3:20 AM — Feb 10 3:20 AM, Preston, Weather by CustomWeather, © 2016

Note: Actual official high and low records may vary slightly from our data, if they occured in-between our weather recording intervals... More about our weather records

Advertising

Preston Weather History for the Previous 24 Hours

 ConditionsComfort  
Time TempWeatherWind HumidityBarometerVisibility
3:20 AM
Wed, Feb 10
43 °FPassing clouds.12 mph87%29.24 "HgN/A
2:50 AM43 °FPassing clouds.12 mph87%29.21 "HgN/A
2:20 AM43 °FPassing clouds.13 mph93%29.21 "HgN/A
1:50 AM43 °FPassing clouds.10 mph93%29.18 "HgN/A
1:20 AM43 °FScattered showers. Partly cloudy.12 mph87%29.18 "HgN/A
12:50 AM43 °FScattered showers. Partly cloudy.15 mph87%29.18 "HgN/A
12:20 AM43 °FRain showers. Partly cloudy.14 mph93%29.15 "HgN/A
11:20 PM
Tue, Feb 9
45 °FSprinkles. Passing clouds.16 mph81%29.15 "HgN/A
10:50 PM43 °FScattered showers. Passing clouds.12 mph87%29.12 "HgN/A
10:20 PM43 °FScattered showers. Passing clouds.10 mph93%29.12 "HgN/A
9:20 PM43 °FSprinkles. Partly cloudy.12 mph93%29.09 "HgN/A
8:50 PM41 °FPassing clouds.10 mph93%29.09 "HgN/A
8:20 PM41 °FPassing clouds.12 mph87%29.06 "HgN/A
7:50 PM39 °FPassing clouds.12 mph93%29.06 "HgN/A
7:20 PM39 °FPartly cloudy.12 mph87%29.06 "HgN/A
6:50 PM39 °FSprinkles. Partly cloudy.13 mph93%29.06 "HgN/A
6:20 PM39 °FScattered showers. Passing clouds.10 mph87%29.03 "HgN/A
5:50 PM39 °FScattered showers. Passing clouds.13 mph87%29.03 "HgN/A
5:20 PM41 °FScattered showers. Passing clouds.16 mph87%29.03 "HgN/A
4:50 PM41 °FBroken clouds.16 mph87%29.00 "HgN/A
4:20 PM41 °FScattered showers. Broken clouds.16 mph87%29.00 "HgN/A
3:50 PM41 °FSprinkles. Partly sunny.20 mph87%29.00 "HgN/A
3:20 PM43 °FScattered showers. Scattered clouds.16 mph76%29.00 "HgN/A
2:20 PM43 °FScattered clouds.13 mph76%29.00 "HgN/A
1:20 PM41 °FPassing clouds.14 mph76%29.00 "HgN/A
12:50 PM41 °FPassing clouds.14 mph76%29.00 "HgN/A
12:20 PM43 °FScattered clouds.16 mph71%29.00 "HgN/A
11:50 AM43 °FScattered clouds.14 mph71%29.00 "HgN/A
11:20 AM43 °FPassing clouds.16 mph76%29.03 "HgN/A
10:20 AM41 °FSunny.14 mph76%29.03 "Hg10 mi
9:20 AM41 °FSunny.12 mph76%29.03 "Hg10 mi
8:50 AM39 °FPassing clouds.10 mph81%29.03 "HgN/A
8:20 AM37 °FPassing clouds.6 mph87%29.03 "HgN/A
7:50 AM37 °FPassing clouds.12 mph87%29.03 "HgN/A
7:20 AM39 °FPassing clouds.9 mph81%29.03 "HgN/A
6:50 AM39 °FPassing clouds.10 mph81%29.06 "HgN/A
6:20 AM39 °FPassing clouds.12 mph81%29.06 "HgN/A
5:50 AM39 °FPassing clouds.10 mph81%29.06 "HgN/A
5:20 AM41 °FClear.12 mph76%29.09 "Hg10 mi
4:50 AM41 °FClear.14 mph76%29.09 "Hg10 mi
4:20 AM41 °FPassing clouds.15 mph76%29.09 "HgN/A
Weather by CustomWeather, © 2016

See weather overviewHow to use our weather pages